TOP > 外国特許検索

外国特許検索

Display results per page Option
Patent state
Country

Clear

Hits 4685 results

No. Application number
Gazette No
Country
Title
Release Date
Update Date
Information Provider
1701 2007JP057138 WO 2008/029533 世界知的所有権機関(WIPO) NET MOUTH INCLINATION KEEPING TYPE TRAWL NET FISHERY SYSTEM 2012/10/09 2013/09/17 東京海洋大学
1702 2007JP071201 WO 2008/056580 世界知的所有権機関(WIPO) SUPERCONDUCTIVE ROTATING ELECTRIC MACHINE DRIVE CONTROL SYSTEM AND SUPERCONDUCTIVE ROTATING ELECTRIC MACHINE DRIVE CONTROL METHOD 2012/10/09 2012/10/09 東京海洋大学
1703 2007JP072659 WO 2008/062867 世界知的所有権機関(WIPO) DEVICE FOR DETECTING GRAVITY CENTER, DEVICE FOR PREDICTING CRITICAL SPEED FOR LATERAL OVERTURN, AND DEVICE FOR PREDICTING CARGO WEIGHT 2012/10/09 2013/09/17 東京海洋大学
1704 2008JP000743 WO 2008/129838 世界知的所有権機関(WIPO) GERM CELL MARKER USING FISH VASA GENE 2012/10/09 2012/10/09 東京海洋大学
1705 2008JP068954 WO 2009/057472 世界知的所有権機関(WIPO) METHOD OF ARTIFICIALLY FEEDING SHRIMP LARVAE AND FEEDING APPARATUS 2012/10/09 2013/09/17 東京海洋大学
1706 2009JP052411 WO 2009/102019 世界知的所有権機関(WIPO) ANTIOXIDATIVE COMPOSITION FOR FEED RAW MATERIAL 2012/10/09 2013/09/17 東京海洋大学
1707 2009JP067502 WO 2010/044365 世界知的所有権機関(WIPO) REAGENT KIT FOR MEASURING FRESHNESS 2012/10/10 2013/09/17 東京海洋大学
1708 2010JP051961 WO 2010/092980 世界知的所有権機関(WIPO) HIGH LIFT OTTER BOARD 2012/10/10 2012/10/10 東京海洋大学
1709 2010JP055236 WO 2010/110373 世界知的所有権機関(WIPO) GENE MARKER LINKED TO GENETIC SEX OF YELLOWTAIL, SEX DETERMINATION METHOD FOR YELLOWTAIL, AND PRIMER FOR USE IN SEX DETERMINATION METHOD 2012/10/10 2012/10/10 東京海洋大学
1710 2010JP002120 WO 2010/109874 世界知的所有権機関(WIPO) KOI HERPES VIRUS-SPECIFIC ANTIBODY AND ANTIGEN THEREOF 2012/10/10 2013/09/17 東京海洋大学
1711 2010JP059365 WO 2010/140627 世界知的所有権機関(WIPO) ROTARY JOINT FOR LOW-TEMPERATURE APPLICATION 2012/10/10 2013/09/17 東京海洋大学
1712 2010JP070425 WO 2011/062171 世界知的所有権機関(WIPO) FLOCCULATING AGENT STARTING MATERIAL USING BROWN ALGAE AS STARTING MATERIAL, FLOCCULATING AGENT USING SAID STARTING MATERIAL, PREPARATION METHOD FOR SAID FLOCCULATING AGENT, AND PURIFICATION METHOD USING SAID FLOCCULATING AGENT 2012/10/11 2012/10/11 東京海洋大学
1713 2010JP007060 WO 2011/067939 世界知的所有権機関(WIPO) INCLINATION COMPUTATION DEVICE 2012/10/11 2012/10/11 東京海洋大学
1714 2011JP001762 WO 2011/118225 世界知的所有権機関(WIPO) METHOD FOR ENGRAFTING GERM CELLS 2012/10/11 2012/10/11 東京海洋大学
1715 2011JP002734 WO 2011/145332 世界知的所有権機関(WIPO) CENTROID DETECTION DEVICE 2012/10/11 2013/09/17 東京海洋大学
1716 2012JP051895 WO 2012102400 世界知的所有権機関(WIPO) STATOR TEETH, STATOR, ROTATING ARMATURE, AND METHOD FOR CONTROLLING ROTATING ARMATURE 2012/10/11 2019/04/19 芝浦工業大学
1717 2012JP057667 WO 2012128377 世界知的所有権機関(WIPO) COMPOSITION FOR TREATMENT AND DIAGNOSIS OF PANCREATIC CANCER 2012/10/11 2019/04/24 鹿児島大学
1718 2012JP057455 WO 2012/128343 世界知的所有権機関(WIPO) AGENT FOR IMPROVING EFFICIENCY OF GENERATING INDUCED PLURIPOTENT STEM CELLS AND EFFICIENT METHOD FOR GENERATING INDUCED PLURIPOTENT STEM CELLS BY USING SAME 2012/10/11 2012/10/11 名古屋市立大学
1719 2008JP052232 WO 2008/105229 世界知的所有権機関(WIPO) FINGER ARTERY ELASTICITY MEASURING PROGRAM, FINGER ARTERY ELASTICITY MEASURING DEVICE, AND FINGER ARTERY ELASTICITY MEASURING METHOD 2012/10/12 2013/09/17 札幌医科大学
1720 2011JP071900 WO 2012/043481 世界知的所有権機関(WIPO) COMPOSITION CONTAINING 2-ACYL-LYSOPHOSPHATIDYLSERINE AND METHOD FOR PRODUCING SAME 2012/10/12 2012/10/12 東京海洋大学
1721 2012JP002031 WO 2012/132369 世界知的所有権機関(WIPO) VIRAL VECTOR TARGETING CANCER STEM CELLS 2012/10/17 2012/10/17 鹿児島大学
1722 2012JP058414 WO 2012/133674 世界知的所有権機関(WIPO) METHOD FOR REMOVING TUMORIGENESIS-CAUSING CELLS AMONG STEM CELLS 2012/10/17 2012/10/17 鹿児島大学
1723 2012JP058123 WO 2012/133527 世界知的所有権機関(WIPO) SODIUM ION SECONDARY BATTERY 2012/10/17 2012/10/17 九州大学
1724 2012JP059278 WO 2012/133920 世界知的所有権機関(WIPO) SOLID-STATE DYE LASER MEDIUM AND PROCESS FOR PRODUCTION THEREOF 2012/10/17 2012/10/17 九州大学
1725 2012JP058189 WO 2012/133556 世界知的所有権機関(WIPO) ELECTROLYTE SOLUTION FOR LITHIUM SECONDARY BATTERIES, AND LITHIUM SECONDARY BATTERY 2012/10/17 2012/10/17 静岡大学
1726 2012JP057939 WO 2012/133411 世界知的所有権機関(WIPO) FRICTION STIR PROCESSING DEVICE AND FRICTION STIR PROCESSING METHOD 2012/10/17 2012/10/17 大阪府立大学
1727 2012JP057940 WO 2012/133412 世界知的所有権機関(WIPO) TOOL FOR FRICTION STIR PROCESSING AND METHOD FOR FRICTION STIR PROCESSING USING SAME 2012/10/17 2012/10/17 大阪府立大学
1728 2012JP055330 WO 2012/132757 世界知的所有権機関(WIPO) SKELETON NANOPARTICLES AND METHOD FOR PRODUCING SAME 2012/10/17 2012/10/17 名古屋工業大学
1729 2012JP058685 WO 2012/133823 世界知的所有権機関(WIPO) NOVEL USEFUL DEEP-SEA BACTERIA 2012/10/17 2012/10/17 東京海洋大学
1730 2012JP056995 WO 2012/132989 世界知的所有権機関(WIPO) MANGANESE-CONTAINING LITHIUM TRIBORATE THERMOLUMINESCENT PHOSPHOR, AND METHOD FOR PRODUCING SAME 実績あり 2012/10/17 2012/10/17 立教大学
1731 2012JP058358 WO 2012/133651 世界知的所有権機関(WIPO) COPPER ALLOY AND METHOD FOR PRODUCING COPPER ALLOY 2012/10/17 2012/10/17 東北大学
1732 2012JP058621 WO 2012/133796 世界知的所有権機関(WIPO) SCINTILLATOR PLATE, RADIATION MEASURING APPARATUS, RADIATION IMAGING APPARATUS, AND SCINTILLATOR PLATE MANUFACTURING METHOD 2012/10/17 2012/10/17 北海道大学
1733 2012JP059411 WO 2012/137885 世界知的所有権機関(WIPO) AGENT FOR INHIBITING OR PREVENTING RENAL INTERSTITIAL FIBROSIS 2012/10/24 2012/10/24 慶應義塾大学
1734 2012JP059462 WO 2012/137899 世界知的所有権機関(WIPO) PARASITE SUPPRESSING ONSET OF TYPE 2 DIABETES 2012/10/25 2012/10/25 麻布大学
1735 2008JP072330 WO 2009/075264 世界知的所有権機関(WIPO) METAL ENCAPSULATED DENDRITIC CARBON NANOSTRUCTURE, CARBON NANOSTRUCTURE, PROCESS FOR PRODUCING METAL ENCAPSULATED DENDRITIC CARBON NANOSTRUCTURE, PROCESS FOR PRODUCING CARBON NANOSTRUCTURE, AND CAPACITOR 2012/10/26 2013/09/17 自然科学研究機構(NINS)
1736 2009JP007279 WO 2010/073712 世界知的所有権機関(WIPO) LIGHT-TRANSMISSIVE POLYCRYSTALLINE MATERIAL AND METHOD FOR PRODUCING THE SAME 2012/10/26 2013/09/17 自然科学研究機構(NINS)
1737 2011JP058684 WO 2011/126041 世界知的所有権機関(WIPO) COMPOUND MICROSCOPE DEVICE 2012/10/26 2013/09/17 自然科学研究機構(NINS)
1738 2011JP060855 WO 2011/158579 世界知的所有権機関(WIPO) OBJECTIVE LENS SYSTEM AND ELECTRON MICROSCOPE 2012/10/26 2012/10/26 自然科学研究機構(NINS)
1739 2011JP004485 WO 2012/020561 世界知的所有権機関(WIPO) CARBON NANOSTRUCTURE, METAL-SUPPORTED CARBON NANOSTRUCTURE, LITHIUM ION SECONDARY BATTERY, PROCESS FOR PRODUCTION OF CARBON NANOSTRUCTURE, AND PROCESS FOR PRODUCTION OF METAL-SUPPORTED CARBON NANOSTRUCTURE 2012/10/26 2012/10/26 自然科学研究機構(NINS)
1740 2012JP050023 WO 2012/111354 世界知的所有権機関(WIPO) LIGHT-TRANSMITTING POLYCRYSTALLINE MATERIAL AND PROCESS FOR PRODUCING SAME 2012/10/26 2012/10/26 自然科学研究機構(NINS)
1741 2011JP005179 WO 2012/035768 世界知的所有権機関(WIPO) INFORMATION DISPLAY DEVICE 新技術説明会 2012/10/29 2012/10/29 タマティーエルオー
1742 2011JP067469 WO 2012/017950 世界知的所有権機関(WIPO) ELECTROENCEPHALOGRAPHIC ELECTRODE DEVICE FOR SMALL LABORATORY ANIMAL AND ELECTROENCEPHALOGRAPHIC METHOD 2012/10/29 2012/10/29 久留米大学
1743 2011JP069244 WO 2012/029639 世界知的所有権機関(WIPO) ANTENNA 2012/10/29 2012/10/29 四国TLO
1744 2011JP070273 WO 2012/033096 世界知的所有権機関(WIPO) SPECTROMETER AND SPECTROMETRIC METHOD 新技術説明会 2012/10/29 2012/10/29 香川大学
1745 2011JP074539 WO 2012/057129 世界知的所有権機関(WIPO) CEREAL POWDER AND APPLICATION FOOD 2012/10/29 2012/10/29 埼玉大学
1746 2011JP070533 WO 2012033181 世界知的所有権機関(WIPO) CULTURE METHOD AND CULTURE DEVICE 2012/10/29 2019/04/24 筑波大学
1747 2011JP004578 WO 2012/026089 世界知的所有権機関(WIPO) SiC SEMICONDUCTOR ELEMENT 2012/10/29 2012/10/29 奈良先端科学技術大学院大学
1748 2011JP065531 WO 2012/005315 世界知的所有権機関(WIPO) HOLOGRAPHIC MICROSCOPE, MICROSCOPIC SUBJECT HOLOGRAM IMAGE RECORDING METHOD, METHOD OF CREATION OF HOLOGRAM FOR REPRODUCTION OF HIGH-RESOLUTION IMAGE, AND METHOD FOR REPRODUCTION OF IMAGE 新技術説明会 2012/10/29 2013/09/17 兵庫県立大学
1749 2011JP068360 WO 2012/023487 世界知的所有権機関(WIPO) METAL COMPLEX, FLUORESCENT PROBE 2012/10/29 2012/10/29 同志社大学
1750 2011JP067637 WO 2012/039197 世界知的所有権機関(WIPO) AGENT FOR ENHANCING TRAIL SENSITIVITY 2012/10/29 2012/10/29 日大NUBIC
1751 2011JP069503 WO 2012/029728 世界知的所有権機関(WIPO) HYPOGLYCEMIC AGENT AND HEALTH FOOD THAT CONTAIN RICE ALBUMIN 2012/10/29 2012/10/29 日大NUBIC
1752 2011JP066466 WO 2012/039189 世界知的所有権機関(WIPO) Re-ADDED Ni-BASED DUAL-PHASE INTERMETALLIC COMPOUND ALLOY AND PROCESS FOR PRODUCTION THEREOF 新技術説明会 2012/10/29 2012/10/29 大阪府立大学
1753 2012JP051961 WO 2012/105483 世界知的所有権機関(WIPO) METHOD FOR PRODUCING METAL COMPLEX OF COMPOUND THAT HAS PORPHYRIN SKELETON 新技術説明会 2012/10/29 2012/10/29 宇都宮大学
1754 2011JP067531 WO 2012/017966 世界知的所有権機関(WIPO) METAL COMPLEX COMPOUND AND AMIDE PRODUCTION METHOD THAT UTILIZES SAID METAL COMPLEX COMPOUND 新技術説明会 2012/10/29 2012/10/29 岡山大学
1755 2011JP069439 WO 2012/029710 世界知的所有権機関(WIPO) NANOFIBER EXERTING EXCELLENT BIODEGRADABILITY AND BIOCOMPATIBILITY, AND METHOD FOR PRODUCING SAID NANOFIBER 2012/10/29 2012/10/29 岡山大学
1756 2011JP071669 WO 2012039469 世界知的所有権機関(WIPO) METHOD FOR SCREENING BINDING INHIBITOR OF RAGE AND AGE 2012/10/29 2019/04/24 岡山大学
1757 2011JP069178 WO 2012026526 世界知的所有権機関(WIPO) HEMOKININ-1 RECEPTOR AND HEMOKININ-1-DERIVED PEPTIDE 2012/10/29 2019/04/22 宮崎大学
1758 2011JP070366 WO 2012/033124 世界知的所有権機関(WIPO) PACKET COMMUNICATION SYSTEM, IRRADIATION CONTROL APPARATUS, ANTENNA CONTROL METHOD AND PROGRAM 2012/10/29 2012/10/29 九州大学
1759 2011JP072490 WO 2012/039513 世界知的所有権機関(WIPO) PROLIFERATION, SEPARATION AND TRANSPLANTATION OF SUPPRESSIVE NEURAL PROGENITOR CELLS, AND SUBSTANCE CAPABLE OF ENHANCING PROLIFERATION OF THE CELLS 2012/10/29 2012/10/29 熊本大学
1760 2011JP069851 WO 2012/029888 世界知的所有権機関(WIPO) TEXTURE INDICATION MEASURING METHOD AND MEASURING DEVICE 2012/10/29 2012/10/29 広島大学
1761 2011JP061910 WO 2012/042970 世界知的所有権機関(WIPO) PROPHYLACTIC OR THERAPEUTIC AGENT FOR ATOPIC DERMATITIS, AND PREPARATION FOR EXTERNAL APPLICATION 新技術説明会 2012/10/29 2012/10/29 高知大学
1762 2011JP071680 WO 2012/043399 世界知的所有権機関(WIPO) FINE COATED COPPER PARTICLES AND METHOD FOR PRODUCING SAME 新技術説明会 2012/10/29 2012/10/29 山形大学
1763 2011JP072357 WO 2012/043710 世界知的所有権機関(WIPO) GROWTH-REGULATED VIRAL VECTOR CONTAINING THE Aurora KINASE PROMOTER 2012/10/29 2012/10/29 鹿児島大学
1764 2011JP070146 WO 2012/029973 世界知的所有権機関(WIPO) MAGNETIC FIELD OBSERVATION DEVICE AND MAGNETIC FIELD OBSERVATION METHOD 新技術説明会 2012/10/29 2012/10/29 秋田大学
1765 2011JP004335 WO 2012/017637 世界知的所有権機関(WIPO) OPTICAL REACTOR AND METHOD FOR MANUFACTURING SAME 新技術説明会 2012/10/29 2012/10/29 信州大学
1766 2011JP074927 WO 2012/081314 世界知的所有権機関(WIPO) CONTROL METHOD FOR CONTRACT-TYPE GEL ACTUATOR 2012/10/29 2012/10/29 信州大学
1767 2011JP004642 WO 2012/023291 世界知的所有権機関(WIPO) PHARMACEUTICAL COMPOSITION FOR TRANSCOLONIC ABSORPTION 2012/10/29 2012/10/29 東京医科歯科大学
1768 2011JP004840 WO 2012/035707 世界知的所有権機関(WIPO) MAP GENERATION DEVICE, MAP GENERATION METHOD, METHOD FOR MOVING MOBILE BODY, AND ROBOT DEVICE 2012/10/29 2012/10/29 東京工業大学
1769 2011JP004762 WO 2012/029269 世界知的所有権機関(WIPO) METHOD FOR DETERMINING CANCER ONSET OR CANCER ONSET RISK 2012/10/29 2012/10/29 東北大学
1770 2011JP004763 WO 2012/035705 世界知的所有権機関(WIPO) METHOD FOR DETERMINING EFFECTIVENESS OF MEDICINE CONTAINING ANTIBODY AS COMPONENT 2012/10/29 2012/10/29 東北大学
1771 2011JP067140 WO 2012/053267 世界知的所有権機関(WIPO) OPTICAL FIBER AND UNDERWATER SHOCKWAVE GENERATING DEVICE EMPLOYING SAME 新技術説明会 2012/10/29 2012/10/29 東北大学
1772 2011JP071099 WO 2012/036234 世界知的所有権機関(WIPO) ENVIRONMENTAL INFORMATION MEASUREMENT DEVICE, ENVIRONMENTAL INFORMATION MEASUREMENT SYSTEM, AND ENVIRONMENTAL INFORMATION MEASUREMENT METHOD 2012/10/29 2012/10/29 北海道大学
1773 2012JP002579 WO 2012/144177 世界知的所有権機関(WIPO) NEGATIVE ELECTRODE FOR LITHIUM ION SECONDARY BATTERIES AND LITHIUM ION SECONDARY BATTERY USING NEGATIVE ELECTRODE 2012/11/07 2012/11/07 群馬大学
1774 2012JP059918 WO 2012/141221 世界知的所有権機関(WIPO) VIDEO CODING DEVICE, VIDEO CODING METHOD, VIDEO CODING PROGRAM, AND COMPUTER-READABLE RECORDING MEDIUM 2012/11/08 2012/11/08 徳島大学
1775 2012JP057254 WO 2012/133070 世界知的所有権機関(WIPO) SILVER-CONTAINING LITHIUM HEPTABORATE PHOTOSTIMULABLE PHOSPHOR, METHOD FOR PRODUCING SAME, AND LAMINATE USING SAID PHOTOSTIMULABLE PHOSPHOR 実績あり 2012/11/09 2012/11/09 立教大学
1776 2012JP053701 WO 2012/111768 世界知的所有権機関(WIPO) SOLAR CELL 2012/11/09 2012/11/09 北海道大学
1777 2012JP002799 WO 2012/147334 世界知的所有権機関(WIPO) NANOPARTICLE MANUFACTURING DEVICE, NANOPARTICLE MANUFACTURING METHOD, NANOPARTICLES, ZINC/ZINC OXIDE NANOPARTICLES AND MAGNESIUM HYDROXIDE NANOPARTICLES 新技術説明会 2012/11/14 2012/11/14 四国TLO
1778 2012JP060309 WO 2012/147559 世界知的所有権機関(WIPO) METALLIC GLASS NANOWIRE MANUFACTURING METHOD, METALLIC GLASS NANOWIRE MANUFACTURED THEREBY, AND CATALYST CONTAINING METALLIC GLASS NANOWIRE 2012/11/14 2012/11/14 東北大学
1779 2012JP060989 WO 2012/147750 世界知的所有権機関(WIPO) IMIDAZOLE DERIVATIVE 2012/11/14 2012/11/14 静岡大学
1780 2012JP064867 WO 2012/173071 世界知的所有権機関(WIPO) TRANSMITTED LIGHT CONTROL DEVICE 2012/11/14 2012/12/26 新潟大学
1781 2012JP061562 WO 2012/150712 世界知的所有権機関(WIPO) RARE-EARTH COMPLEX POLYMER AND PLASTIC MOLDED PRODUCT 新技術説明会 2012/11/21 2012/11/21 北海道大学
1782 2012JP061549 WO 2012/150707 世界知的所有権機関(WIPO) LOW MOLECULAR WEIGHT COMPOUND WHICH PROMOTES INDUCTION OF DIFFERENTIATION OF STEM CELLS INTO INSULIN-PRODUCING CELLS AND METHOD FOR INDUCING DIFFERENTIATION OF STEM CELLS INTO INSULIN-PRODUCING CELLS USING LOW MOLECULAR WEIGHT COMPOUND 2012/11/21 2012/11/21 熊本大学
1783 2012JP061196 WO 2012/153645 世界知的所有権機関(WIPO) METHOD FOR PRODUCING HIGH-STRENGTH HIGH-TOUGHNESS ZrO2-Al2O3-BASED SOLID SOLUTION CERAMIC 2012/11/28 2012/11/28 同志社大学
1784 2012JP061753 WO 2012/153732 世界知的所有権機関(WIPO) SPREAD DEVICE, COMMUNICATION DEVICE, TRANSMISSION DEVICE, COMMUNICATION METHOD AND PROGRAMME 2012/11/28 2012/11/28 九州大学
1785 2012JP061612 WO 2012/153695 世界知的所有権機関(WIPO) INSPECTION DEVICE AND INSPECTION METHOD USING FUNCTIONAL LIGHT SOURCE, AND FUNCTIONAL LIGHT SOURCE AND DESIGN METHOD THEREFOR 2012/11/28 2012/11/28 豊橋技術科学大学(とよはしTLO)
1786 2012JP061918 WO 2012/153784 世界知的所有権機関(WIPO) STEREO HEADPHONE DEVICE 2012/11/28 2012/11/28 科学技術振興機構(JST)
1787 2012JP062777 WO 2012/157745 世界知的所有権機関(WIPO) SUPERCONDUCTING MAGNET AND NUCLEAR MAGNETIC RESONANCE DEVICE 2012/12/05 2012/12/05 九州大学
1788 2012JP057829 WO 2012157339 世界知的所有権機関(WIPO) GROWTH FACTOR ANCHORING TYPE BONE GRAFT MATERIAL, METHOD FOR PRODUCING GROWTH FACTOR ANCHORING TYPE BONE GRAFT MATERIAL, KIT FOR PRODUCING GROWTH FACTOR ANCHORING TYPE BONE GRAFT MATERIAL, AND METHOD FOR FORMING BONE 2012/12/05 2019/04/19 北里大学
1789 2012JP080962 WO 2014083662 世界知的所有権機関(WIPO) MOLDING JIG MANUFACTURING METHOD 新技術説明会 2012/12/07 2015/07/15 岐阜大学
1790 2012JP062353 WO 2012/161024 世界知的所有権機関(WIPO) METHOD FOR PRODUCING RECOMBINANT PROTEIN, AND METHOD FOR INTRODUCING PROTEIN 2012/12/12 2012/12/12 名古屋市立大学
1791 2012JP061193 WO 2012/160941 世界知的所有権機関(WIPO) TITRATION DEVICE AND RICE INSPECTION METHOD USING SAME 2012/12/12 2012/12/12 筑波大学
1792 2012JP062825 WO 2012/161124 世界知的所有権機関(WIPO) COMPOSITION CONTAINING MICRO RNA OR EXPRESSION SYSTEM THEREOF 2012/12/12 2012/12/12 四国TLO
1793 2012JP060622 WO 2012153616 世界知的所有権機関(WIPO) LIPID MEMBRANE STRUCTURE CAPABLE OF IMIGRATING TO TARGET CELL AND METHOD FOR PRODUCING SAME, AND METHOD FOR SCREENING FOR SUBSTANCE EXHIBITING EFFECT THEREOF IN TARGET CELL 2012/12/19 2019/04/24 北海道大学
1794 2012JP064095 WO 2012/165556 世界知的所有権機関(WIPO) IMAGE PHOTOGRAPHY METHOD, IMAGE PHOTOGRAPHY PLAY METHOD, SPATIAL LIGHTING MODULATOR, IMAGE PLAY DEVICE, AND DIGITAL HOLOGRAM FORMING DEVICE 2012/12/19 2012/12/19 豊橋技術科学大学(とよはしTLO)
1795 2012JP063998 WO 2012/165510 世界知的所有権機関(WIPO) RECOVERY OF REUSABLE OSMIUM TETROXIDE 2012/12/19 2012/12/19 浜松医科大学
1796 2012JP063562 WO 2012/165356 世界知的所有権機関(WIPO) THERMOSENSITIVE POLYAMINO ACID OR SALT THEREOF 新技術説明会 2012/12/19 2012/12/19 九州大学
1797 2012JP063248 WO 2012/165270 世界知的所有権機関(WIPO) GENE TARGETING VECTOR, METHOD FOR MANUFACTURING SAME, AND METHOD FOR USING SAME 新技術説明会 2012/12/19 2012/12/19 横浜市立大学
1798 2012JP062406 WO 2012/165135 世界知的所有権機関(WIPO) DATABASE LOGGING METHOD AND LOGGING DEVICE RELATING TO APPROXIMATE NEAREST NEIGHBOR SEARCH 2012/12/19 2012/12/19 大阪府立大学
1799 2012JP003054 WO 2012/164834 世界知的所有権機関(WIPO) NEGATIVE-ELECTRODE ACTIVE MATERIAL FOR LITHIUM ION SECONDARY CELL, AND NEGATIVE ELECTRODE AND SECONDARY CELL USING NEGATIVE-ELECTRODE ACTIVE MATERIAL FOR LITHIUM ION SECONDARY CELL 2012/12/19 2012/12/19 群馬大学
1800 2012JP003505 WO 2012/164912 世界知的所有権機関(WIPO) CARBON DIOXIDE ENRICHMENT DEVICE 2012/12/19 2012/12/19 科学技術振興機構(JST)

PAGE TOP